When you browse on this site, cookies collect data to enhance your experience and personalize the content and advertising you see.
Visit our Privacy Policy to learn more. By continuing to use the site, you agree to this use of cookies and data.
  • In Netherlands
  • List of Countries
  • For 7 days
  • Water Temperature
  • Satellite Maps
  • Weather Map
  • Weather Widgets
  • user-avatar
    Login

    Hourly Weather Trzebiatów

    Today, 26 June, Wednesday

    Time Temperature Precipitation Wind Pressure Humidity
    00:00 +24°C° 0 mm 3 mps 765 mmHg 90%
    01:00 +22°C° 0 mm 3 mps 765 mmHg 87%
    02:00 +22°C° 0 mm 3 mps 765 mmHg 88%
    03:00 +22°C° 0 mm 3 mps 764 mmHg 90%
    04:00 +21°C° 0 mm 3 mps 764 mmHg 91%
    05:00 +24°C° 0 mm 3 mps 764 mmHg 86%
    06:00 +25°C° 0 mm 3 mps 764 mmHg 81%
    07:00 +27°C° 0 mm 3 mps 764 mmHg 77%
    08:00 +28°C° 0 mm 3 mps 763 mmHg 73%
    09:00 +29°C° 0 mm 3 mps 763 mmHg 69%
    10:00 +32°C° 0 mm 4 mps 763 mmHg 65%
    11:00 +32°C° 0 mm 4 mps 763 mmHg 63%
    12:00 +33°C° 0 mm 4 mps 763 mmHg 60%
    13:00 +33°C° 0 mm 4 mps 762 mmHg 58%
    14:00 +32°C° 0.1 mm 5 mps 762 mmHg 64%
    15:00 +30°C° 0.1 mm 6 mps 762 mmHg 69%
    16:00 +28°C° 0.1 mm 6 mps 761 mmHg 75%
    17:00 +27°C° 0 mm 7 mps 762 mmHg 77%
    18:00 +26°C° 0 mm 8 mps 762 mmHg 80%
    19:00 +24°C° 0 mm 8 mps 762 mmHg 82%
    20:00 +22°C° 0 mm 8 mps 762 mmHg 85%
    21:00 +21°C° 0 mm 7 mps 763 mmHg 87%
    22:00 +20°C° 0 mm 6 mps 763 mmHg 90%
    23:00 +18°C° 0 mm 7 mps 763 mmHg 86%

    Tomorrow, 27 June, Thursday

    Time Temperature Precipitation Wind Pressure Humidity
    00:00 +18°C° 0 mm 8 mps 763 mmHg 83%
    01:00 +17°C° 0 mm 10 mps 763 mmHg 79%
    02:00 +16°C° 0 mm 9 mps 763 mmHg 78%
    03:00 +16°C° 0 mm 9 mps 763 mmHg 76%
    04:00 +15°C° 0 mm 9 mps 763 mmHg 75%
    05:00 +15°C° 0 mm 9 mps 763 mmHg 75%
    06:00 +15°C° 0 mm 9 mps 763 mmHg 75%
    07:00 +16°C° 0 mm 9 mps 763 mmHg 75%
    08:00 +16°C° 0 mm 9 mps 763 mmHg 75%
    09:00 +17°C° 0 mm 9 mps 764 mmHg 74%
    10:00 +17°C° 0 mm 9 mps 764 mmHg 73%
    11:00 +17°C° 0 mm 9 mps 764 mmHg 74%
    12:00 +18°C° 0 mm 8 mps 764 mmHg 74%
    13:00 +18°C° 0 mm 8 mps 764 mmHg 74%
    14:00 +18°C° 0 mm 7 mps 764 mmHg 76%
    15:00 +20°C° 0 mm 7 mps 764 mmHg 77%
    16:00 +20°C° 0 mm 6 mps 764 mmHg 78%
    17:00 +20°C° 0.1 mm 5 mps 764 mmHg 81%
    18:00 +20°C° 0.1 mm 5 mps 764 mmHg 83%
    19:00 +20°C° 0.1 mm 4 mps 764 mmHg 86%
    20:00 +19°C° 0.2 mm 3 mps 764 mmHg 88%
    21:00 +18°C° 0.2 mm 3 mps 765 mmHg 90%
    22:00 +17°C° 0.2 mm 2 mps 765 mmHg 92%
    23:00 +17°C° 0 mm 2 mps 765 mmHg 92%

    Day after tomorrow, 28 June, Friday

    Time Temperature Precipitation Wind Pressure Humidity
    00:00 +17°C° 0 mm 3 mps 765 mmHg 91%
    01:00 +17°C° 0 mm 3 mps 765 mmHg 91%
    02:00 +17°C° 0 mm 3 mps 765 mmHg 91%
    03:00 +16°C° 0 mm 3 mps 765 mmHg 91%
    04:00 +16°C° 0 mm 3 mps 765 mmHg 91%
    05:00 +17°C° 0 mm 3 mps 765 mmHg 88%
    06:00 +19°C° 0 mm 4 mps 765 mmHg 84%
    07:00 +20°C° 0 mm 5 mps 765 mmHg 80%
    08:00 +20°C° 0 mm 5 mps 766 mmHg 72%
    09:00 +21°C° 0 mm 5 mps 766 mmHg 64%
    10:00 +21°C° 0 mm 5 mps 766 mmHg 56%
    11:00 +22°C° 0 mm 4 mps 766 mmHg 55%
    12:00 +22°C° 0 mm 4 mps 766 mmHg 53%
    13:00 +22°C° 0 mm 3 mps 766 mmHg 51%
    14:00 +22°C° 0 mm 3 mps 766 mmHg 52%
    15:00 +22°C° 0 mm 3 mps 766 mmHg 53%
    16:00 +23°C° 0 mm 2 mps 766 mmHg 53%
    17:00 +21°C° 0 mm 2 mps 766 mmHg 59%
    18:00 +20°C° 0 mm 2 mps 766 mmHg 64%
    19:00 +19°C° 0 mm 3 mps 766 mmHg 69%
    20:00 +18°C° 0 mm 3 mps 766 mmHg 70%
    21:00 +17°C° 0 mm 3 mps 766 mmHg 71%
    22:00 +14°C° 0 mm 3 mps 766 mmHg 72%
    23:00 +14°C° 0 mm 3 mps 766 mmHg 75%

    29 June, Saturday

    Time Temperature Precipitation Wind Pressure Humidity
    00:00 +14°C° 0 mm 3 mps 766 mmHg 78%
    01:00 +14°C° 0 mm 3 mps 766 mmHg 81%
    02:00 +14°C° 0 mm 3 mps 766 mmHg 80%
    03:00 +14°C° 0 mm 3 mps 766 mmHg 79%
    04:00 +13°C° 0 mm 3 mps 766 mmHg 78%
    05:00 +16°C° 0 mm 3 mps 766 mmHg 76%
    06:00 +17°C° 0 mm 3 mps 766 mmHg 74%
    07:00 +19°C° 0 mm 3 mps 766 mmHg 71%
    08:00 +20°C° 0 mm 3 mps 765 mmHg 67%
    09:00 +21°C° 0 mm 4 mps 765 mmHg 63%
    10:00 +23°C° 0 mm 4 mps 765 mmHg 60%
    11:00 +23°C° 0 mm 4 mps 765 mmHg 58%
    12:00 +25°C° 0 mm 4 mps 765 mmHg 57%
    13:00 +26°C° 0 mm 3 mps 764 mmHg 55%
    14:00 +26°C° 0 mm 3 mps 764 mmHg 57%
    15:00 +26°C° 0 mm 3 mps 764 mmHg 58%
    16:00 +26°C° 0 mm 3 mps 763 mmHg 59%
    17:00 +25°C° 0 mm 3 mps 763 mmHg 65%
    18:00 +24°C° 0 mm 2 mps 763 mmHg 71%
    19:00 +23°C° 0 mm 2 mps 762 mmHg 78%
    20:00 +21°C° 0 mm 2 mps 762 mmHg 81%
    21:00 +20°C° 0 mm 1 mps 762 mmHg 84%
    22:00 +19°C° 0 mm 1 mps 763 mmHg 88%
    23:00 +18°C° 0 mm 2 mps 762 mmHg 88%

    30 June, Sunday

    Time Temperature Precipitation Wind Pressure Humidity
    00:00 +18°C° 0 mm 2 mps 762 mmHg 87%
    01:00 +18°C° 0 mm 3 mps 762 mmHg 87%
    02:00 +18°C° 0 mm 3 mps 762 mmHg 84%
    03:00 +18°C° 0 mm 4 mps 761 mmHg 80%
    04:00 +17°C° 0 mm 4 mps 761 mmHg 77%
    05:00 +19°C° 0 mm 5 mps 761 mmHg 73%
    06:00 +20°C° 0 mm 5 mps 761 mmHg 68%
    07:00 +21°C° 0 mm 5 mps 760 mmHg 64%
    08:00 +23°C° 0 mm 6 mps 760 mmHg 61%
    09:00 +26°C° 0 mm 6 mps 760 mmHg 58%
    10:00 +28°C° 0 mm 7 mps 759 mmHg 55%
    11:00 +28°C° 0 mm 7 mps 759 mmHg 53%
    12:00 +29°C° 0 mm 7 mps 758 mmHg 52%
    13:00 +30°C° 0 mm 7 mps 758 mmHg 50%
    14:00 +32°C° 0 mm 6 mps 758 mmHg 51%
    15:00 +32°C° 0 mm 6 mps 757 mmHg 52%
    16:00 +32°C° 0 mm 5 mps 757 mmHg 53%
    17:00 +29°C° 0 mm 6 mps 757 mmHg 61%
    18:00 +27°C° 0 mm 6 mps 757 mmHg 70%
    19:00 +24°C° 0 mm 7 mps 757 mmHg 79%
    20:00 +23°C° 0 mm 7 mps 757 mmHg 74%
    21:00 +21°C° 0 mm 7 mps 758 mmHg 70%
    22:00 +20°C° 0 mm 7 mps 758 mmHg 65%
    23:00 +18°C° 0 mm 7 mps 758 mmHg 72%

    1 July, Monday

    Time Temperature Precipitation Wind Pressure Humidity
    00:00 +17°C° 0 mm 6 mps 758 mmHg 80%
    01:00 +16°C° 0 mm 6 mps 759 mmHg 87%
    02:00 +16°C° 0 mm 6 mps 759 mmHg 87%
    03:00 +16°C° 0 mm 6 mps 759 mmHg 87%
    04:00 +16°C° 0 mm 6 mps 759 mmHg 86%
    05:00 +16°C° 0 mm 6 mps 759 mmHg 85%
    06:00 +16°C° 0 mm 6 mps 759 mmHg 84%
    07:00 +16°C° 0 mm 6 mps 759 mmHg 82%
    08:00 +17°C° 0 mm 6 mps 759 mmHg 80%
    09:00 +17°C° 0 mm 6 mps 759 mmHg 78%
    10:00 +19°C° 0 mm 6 mps 759 mmHg 76%
    11:00 +20°C° 0 mm 6 mps 759 mmHg 71%
    12:00 +21°C° 0 mm 5 mps 759 mmHg 65%
    13:00 +23°C° 0 mm 5 mps 758 mmHg 59%
    14:00 +23°C° 0.1 mm 5 mps 758 mmHg 61%
    15:00 +23°C° 0.1 mm 4 mps 758 mmHg 63%
    16:00 +23°C° 0.1 mm 4 mps 757 mmHg 64%
    17:00 +21°C° 0.5 mm 5 mps 757 mmHg 71%
    18:00 +20°C° 0.5 mm 5 mps 757 mmHg 77%
    19:00 +19°C° 0.5 mm 6 mps 756 mmHg 84%
    20:00 +17°C° 0 mm 6 mps 757 mmHg 83%
    21:00 +16°C° 0 mm 7 mps 757 mmHg 83%
    22:00 +15°C° 0 mm 7 mps 757 mmHg 82%
    23:00 +15°C° 0.1 mm 7 mps 758 mmHg 82%
    Show more